sat.trackr.live / text

‹ back to catalog

2025-013C

NORAD 62731 · 2025-013C

PAYLOAD ACTIVE UNKNOWN

§ Identity

Operator
Country
PRC
Launch date
2025-01-20
Launch site
JSC
Launch vehicle
Mass (kg)
RCS (m²)

External: N2YO · Heavens-Above · Gunter

§ Orbital elements

Epoch: 2026-05-25T05:16:07.137120Z

Period
95.29 min
Inclination
97.6500°
Eccentricity
0.0015720
Mean motion
15.11114090 rev/d
Perigee alt
521.9 km
Apogee alt
543.7 km
Semi-major
6,910.9 km
B*
2.2037e-4
RAAN
314.2990°
Arg perigee
92.2825°
Mean anomaly
268.0205°
Rev number
7,386

§ Raw data

2025-013C1 62731U 25013C   26145.21952705  .00003636  00000+0  22037-3 0  99932 62731  97.6500 314.2990 0015720  92.2825 268.0205 15.11114090 73869

JSON: /api/v1/satellites/62731 · /tle

For live sub-satellite position, see the globe view (requires WebGL).

§ Visibility from observer

Set your observer location to see the next 7 days of passes ≥ 10°. The values pass through the URL so the page stays shareable.

No JS? Fill the form by hand. The geolocation button needs JavaScript.